Regional Weather Roundup
Issued by NWS Jackson, KY

Home | Current Version | Previous Version | Graphics & Text | Print | Product List | Glossary On
Versions: 1 2 3 4 5 6 7 8 9 10 11 12 13 14 15 16 17 18 19 20 21 22 23 24 25 26 27 28 29 30 31 32 33 34 35 36 37 38 39 40 41 42 43 44 45 46 47 48 49 50
000
ASUS43 KJKL 250910
RWRJKL

EAST KENTUCKY HOURLY WEATHER ROUNDUP
NATIONAL WEATHER SERVICE JACKSON KY
500 AM EDT MON MAY 25 2015

NOTE: "FAIR" INDICATES FEW OR NO CLOUDS BELOW 12,000 FEET WITH
NO SIGNIFICANT WEATHER AND/OR OBSTRUCTIONS TO VISIBILITY.

* THESE REPORTS ARE NOT UNDER NWS QUALITY CONTROL AND MAY NOT
  REPORT WEATHER SUCH AS PRECIPITATION AND FOG.

KYZ079-080-083-085-087-088-110-112-115-119-120-251000
...EASTERN KENTUCKY...

CITY           SKY/WX    TMP DP  RH WIND       PRES   REMARKS
JACKSON        PTCLDY    65  50  58 VRB3      30.19S
LONDON         PTCLDY    64  51  62 SE3       30.18S
SOMERSET*      MOCLDY    64  54  68 S5        30.17S
MONTICELLO*    MOCLDY    72  56  57 S14       30.18S
MIDDLESBORO*   CLEAR     56  55  95 CALM      30.23S
HARLAN APT*    SUNNY     63  50  63 CALM      30.23S
HAZARD APT*    SUNNY     63  52  67 E3        30.19S
BLACK MTN*       N/A     55  50  82 SW5         N/A
PIKEVILLE APT* CLEAR     66  50  55 S6        30.21S
BIG SANDY*     SUNNY     67  51  55 S6        30.20R
MOREHEAD APT*  MOSUNNY   64  54  68 SE5       30.17S
$$

KYZ035-036-041-042-044-050-067-078-099-251000
...CENTRAL KENTUCKY...

CITY           SKY/WX    TMP DP  RH WIND       PRES   REMARKS
MT STERLING*   PTCLDY    64  54  68 S7        30.16S
FLEMING/MASON* MOCLDY    66  54  63 S8        30.15S
DANVILLE*      MOCLDY    68  55  64 S7        30.15S
RICHMOND*      MOCLDY    68  52  56 S6        30.14S
LEXINGTON      MOCLDY    68  55  63 S10       30.13S
FRANKFORT      MOCLDY    70  56  61 S7        30.10S
$$

KYZ091>093-OHZ055-061-077-WVZ005-015-034-035-042-251000
...SOUTHERN OHIO/WEST VIRGINIA...

CITY           SKY/WX    TMP DP  RH WIND       PRES   REMARKS
COVINGTON      CLOUDY    70  56  61 S10       30.09S
COLUMBUS       MOCLDY    66  54  65 S7        30.11S
DAYTON         CLOUDY    71  54  54 S12       30.09S
WILMINGTON     MOCLDY    67  52  58 S9        30.11S
HUNTINGTON     PTCLDY    63  52  67 CALM      30.16S
CHARLESTON     CLEAR     59  54  83 CALM      30.19S
PINEVILLE*     PTCLDY    53  52  98 MISG      30.30S
BECKLEY        CLEAR     60  49  66 SE8       30.27S
BLUEFIELD      CLEAR     63  49  60 CALM      30.29S
$$

VAZ002-007-008-TNZ017-027-036-066-071-251000
...SOUTHWEST VIRGINIA/EAST TENNESSEE...

CITY           SKY/WX    TMP DP  RH WIND       PRES   REMARKS
WISE*          CLEAR     61  46  59 S7        30.29R
JONESVILLE*    SUNNY     57  54  88 CALM      30.26R
ABINGDON*      CLEAR     55  51  86 CALM      30.28R
BRISTOL        PTCLDY    55  51  86 CALM      30.26R
KNOXVILLE      CLEAR     62  54  74 NE3       30.20S
OAK RIDGE      CLEAR     64  55  72 VRB3      30.23R
CROSSVILLE     CLEAR     69  54  58 S9G21     30.22S
NASHVILLE      CLOUDY    73  60  63 S14       30.10S
$$

...KEY TO REMARKS...
VSB - VISIBILITY IN MILES
WCI - WIND CHILL INDEX
HX  - HEAT INDEX

$$


USA.gov is the U.S. government's official web portal to all federal, state and local government web resources and services.